This is the latest recevied weather packets stored in our database for station/object KI5RAB. If no packets are shown the sender has not sent any weather packets the latest 10 day(s).
| Time | Temp. | Humidity | Pressure | Rain* | Wind** | Luminosity | Snow |
|---|---|---|---|---|---|---|---|
| 1778008291 | 28.89° C | 70% | 1011.1 hPa | 0 mm | - | 460 W/m² | - |
| 1778007987 | 28.89° C | 73% | 1011.3 hPa | 0 mm | - | 318 W/m² | - |
| 1778007681 | 28.33° C | 71% | 1011 hPa | 0 mm | - | 796 W/m² | - |
| 1778007379 | 28.33° C | 73% | 1011.6 hPa | 0 mm | - | 272 W/m² | - |
| 1778007075 | 27.78° C | 74% | 1011.5 hPa | 0 mm | - | 330 W/m² | - |
| 1778006771 | 27.78° C | 75% | 1011.7 hPa | 0 mm | - | 754 W/m² | - |
| 1778006468 | 27.78° C | 75% | 1011.5 hPa | 0 mm | - | 263 W/m² | - |
| 1778006165 | 27.78° C | 75% | 1011.8 hPa | 0 mm | - | 282 W/m² | - |
| 1778005863 | 27.22° C | 76% | 1011.8 hPa | 0 mm | - | 352 W/m² | - |
| 1778005558 | 26.67° C | 77% | 1011.9 hPa | 0 mm | - | 307 W/m² | - |
| 1778005256 | 27.22° C | 76% | 1012 hPa | 0 mm | - | 211 W/m² | - |
| 1778004952 | 27.22° C | 76% | 1012 hPa | 0 mm | - | 232 W/m² | - |
| 1778004650 | 26.67° C | 77% | 1011.8 hPa | 0 mm | - | 377 W/m² | - |
| 1778004345 | 26.67° C | 78% | 1012 hPa | 0 mm | - | 313 W/m² | - |
| 1778004044 | 26.67° C | 78% | 1011.9 hPa | 0 mm | - | 243 W/m² | - |
| 1778003738 | 26.67° C | 77% | 1012 hPa | 0 mm | - | 280 W/m² | - |
| 1778003435 | 26.67° C | 78% | 1011.9 hPa | 0 mm | - | 333 W/m² | - |
| 1778003132 | 26.67° C | 79% | 1012.1 hPa | 0 mm | - | 241 W/m² | - |
| 1778002828 | 25.56° C | 80% | 1012 hPa | 0 mm | - | 286 W/m² | - |
| 1778002525 | 26.11° C | 79% | 1012.1 hPa | 0 mm | - | 280 W/m² | - |
| 1778002222 | 25.56° C | 80% | 1012.1 hPa | 0 mm | - | 332 W/m² | - |
| 1778001920 | 25.56° C | 82% | 1012.1 hPa | 0 mm | - | 261 W/m² | - |
| 1778001616 | 25.56° C | 80% | 1012.1 hPa | 0 mm | - | 260 W/m² | - |
| 1778001311 | 25.56° C | 82% | 1012.2 hPa | 0 mm | - | 242 W/m² | - |
| 1778001008 | 25.56° C | 82% | 1012.1 hPa | 0 mm | - | 246 W/m² | - |
* Rain latest hour (hover to see other rain measurements)
** Current wind speed in m/s (hover to see current wind gust speed)